Location: *
(44.1392°N, 4.8079°E)
Time: 20:42:17
(UTC+00:00)

DELTA 2 R/B (1) - Pass Details

Date: 21 June 2021
Orbit: 789 x 803 km, 39.6° (Epoch: 02 August)

Event Time Altitude Azimuth Distance (km) Brightness Sun altitude
Exits shadow 01:27:51 25° 244° (WSW) 1,545 4.6 -18.2°
Maximum altitude 01:30:53 54° 177° (S) 951 3.6 -18.0°
Drops below altitude 10° 01:36:16 10° 102° (ESE) 2,350 6.2 -17.6°
Sets 01:38:48 0° 97° (E) 3,281 7.0 -17.4°
